Flag Weather past 2 weeks in Buenos Aires, Argentina

Now
70 °F

Partly cloudy.


Feels Like: 70 °F
Forecast: 65 / 71 °F
Wind: 17 mph from Southeast

Location: Buenos Aires Airport

Current Time: Nov 21, 2014 at 12:31:19 AM

Latest Report: Nov 20, 2014 at 11:00 PM


Visibility: N/A

Pressure: 30.01 "Hg

Humidity: 73%

Dew point: 61 °F

Location of Buenos AiresLocation

Historic Weather in Buenos Aires — Graph

°F

Buenos Aires temperature yesterday

Maximum temperature yesterday: 75 °F (at 12:00 PM)
Minimum temperature yesterday: 64 °F (at 3:00 AM)
Average temperature yesterday: 71 °F

Past Weeks' High & Low Weather Summary

 TemperatureHumidityPressure
High88 °F (Nov 18, 4:00 PM)94% (Nov 11, 6:00 AM)30.15 "Hg (Nov 11, 6:00 AM)
Low55 °F (Nov 13, 5:00 AM)23% (Nov 8, 1:00 PM)29.65 "Hg (Nov 18, 6:00 PM)
Average72 °F61%29.92 "Hg
* Reported Nov 5 11:00 PM — Nov 20 11:00 PM, Buenos Aires, Weather by CustomWeather, © 2014

Note: Actual official high and low records may vary slightly from our data, if they occured in-between our weather recording intervals... More about our weather records

Advertising

Buenos Aires weather history for previous 24 hours

 ConditionsComfort  
Time TempWeatherWind HumidityBarometerVisibility
11:00 PM
Nov 20
70 °FPartly cloudy.17 mph73%30.01 "HgN/A
10:00 PM72 °FPartly cloudy.15 mph65%30.01 "HgN/A
9:00 PM72 °FPartly cloudy.14 mph57%30.01 "HgN/A
8:00 PM73 °FPassing clouds.12 mph53%30.01 "HgN/A
7:00 PM73 °FClear.12 mph57%29.98 "Hg10 mi
6:00 PM73 °FPartly sunny.8 mph57%29.95 "HgN/A
5:00 PM73 °FScattered clouds.7 mph61%29.98 "HgN/A
4:00 PM75 °FScattered clouds.6 mph61%29.98 "HgN/A
3:00 PM75 °FScattered clouds.5 mph65%29.98 "HgN/A
2:00 PM75 °FScattered clouds.6 mph61%30.01 "HgN/A
1:00 PM75 °FScattered clouds.7 mph65%29.98 "HgN/A
12:00 PM75 °FBroken clouds.7 mph65%30.01 "HgN/A
11:00 AM73 °FBroken clouds.6 mph69%30.01 "HgN/A
10:00 AM72 °FSunny.6 mph69%29.98 "Hg10 mi
9:00 AM73 °FPassing clouds.5 mph65%29.98 "HgN/A
8:00 AM72 °FSunny.3 mph69%29.98 "Hg10 mi
7:00 AM68 °FSunny.8 mph78%29.95 "Hg10 mi
6:00 AM66 °FSunny.5 mph78%29.95 "Hg10 mi
5:00 AM64 °FSunny.3 mph83%29.89 "Hg10 mi
4:00 AM64 °FClear.3 mph83%29.89 "Hg10 mi
3:00 AM64 °FClear.2 mph83%29.86 "Hg10 mi
2:00 AM66 °FClear.2 mph78%29.86 "Hg10 mi
12:00 AM68 °FClear.1 mph78%29.89 "Hg10 mi
Weather by CustomWeather, © 2014

See weather overviewHow to use our weather pages